Regional Weather Roundup
Issued by NWS

Home | Current Version | Previous Version | Text Only | Print | Product List | Glossary Off
Versions: 1 2 3 4 5 6 7 8 9 10 11 12 13 14 15 16 17 18 19 20 21 22 23 24 25 26 27 28 29 30 31 32 33 34 35 36 37 38 39 40 41 42 43 44 45 46 47 48 49 50

000
ASUS43 KLOT 260002
RWRIL

ILLINOIS REGIONAL WEATHER ROUNDUP
NATIONAL WEATHER SERVICE CHICAGO/ROMEOVILLE IL
700 PM CDT SAT MAR 25 2017

NOTE: "FAIR" INDICATES FEW OR NO CLOUDS BELOW 12,000 FEET WITH NO
SIGNIFICANT WEATHER AND/OR OBSTRUCTIONS TO VISIBILITY.

* THESE STATIONS ARE NOT UNDER NWS QUALITY CONTROL. THEY ALSO MAY NOT
  REPORT WEATHER SUCH AS PRECIPITATION OR FOG.

ILZ001-002-007-009-015-016-024-260100-
NORTHWEST ILLINOIS

CITY           SKY/WX    TMP DP  RH WIND       PRES   REMARKS
MOLINE         CLOUDY    51  48  89 NE14      29.88S FOG
6HR MIN TEMP:  45; 6HR MAX TEMP:  55;

STERLING*      CLOUDY    46  44  93 NE10      29.93S
SAVANNA*       CLOUDY    43  41  93 NE14      29.94S
$$

ILZ003-004-008-010-011-017-018-260100-
NORTH CENTRAL ILLINOIS

CITY           SKY/WX    TMP DP  RH WIND       PRES   REMARKS
ROCKFORD       LGT RAIN  43  40  89 E14       29.99S
6HR MIN TEMP:  42; 6HR MAX TEMP:  45; 6HR PCP: TRACE;

FREEPORT*      CLOUDY    40  40  97 NE13      29.98F
ROCHELLE*      CLOUDY    43  43  98 NE18      29.96R FOG
DE KALB*       CLOUDY    42  42  98 NE12      29.97S FOG
$$

ILZ005-006-012>014-019>023-260100-
NORTHEAST ILLINOIS

CITY           SKY/WX    TMP DP  RH WIND       PRES   REMARKS
CHICAGO-OHARE  LGT RAIN  43  41  93 NE9       29.98S FOG
6HR MIN TEMP:  43; 6HR MAX TEMP:  44; 6HR PCP:  0.14;

CHICAGO-MIDWAY CLOUDY    46  44  93 N10       29.98S FOG
6HR MIN TEMP:  45; 6HR MAX TEMP:  48; 6HR PCP:  0.15;

AURORA         CLOUDY    46  43  89 NE12      29.96S
6HR MIN TEMP:  45; 6HR MAX TEMP:  47; 6HR PCP: TRACE;

LANSING*       CLOUDY    46  46 100 N6        29.97S FOG
JOLIET*        CLOUDY    48  47  97 NE7       29.95S FOG
WAUKEGAN       LGT RAIN  40  40 100 NE9       30.01S FOG
6HR MIN TEMP:  38; 6HR MAX TEMP:  40; 6HR PCP:  0.06;

DUPAGE AIRPORT CLOUDY    43  43 100 NE12      29.97S
6HR MIN TEMP:  42; 6HR MAX TEMP:  43; 6HR PCP:  0.03;

WHEELING       LGT RAIN  41  41 100 N12       30.00F FOG
6HR MIN TEMP:  40; 6HR MAX TEMP:  41; 6HR PCP:  0.10;

MORRIS*        CLOUDY    49  47  95 NE6       29.94R FOG
NORTHERLY ISL    N/A     42  41  96 N12         N/A
$$

LMZ740>746-260100-
SOUTHERN LAKE MICHIGAN

STATION/POSITION SKY/WX   TEMP    WIND        PRES    VSBY  WAVE
                          AIR SEA DIR/SP/G                  HT/PER
                          (F)     (DEG/KT/KT) (MB)    (MI)  (FT/S)
HARRISON CRIB                     340/ 14/ 14   N/A
BURNHAM HARBOR                    340/ 10/ 14   N/A
CALUMET HARBOR             41     330/ 11/ 15 1014.4S
BURNS HARBOR               43     270/  2/  3 1015.6R
MICHIGAN CITY              56     100/ 11/ 14   N/A
$$

ILZ025>027-034>036-040-047-049-050-058-095>099-260100-
WEST-CENTRAL ILLINOIS

CITY           SKY/WX    TMP DP  RH WIND       PRES   REMARKS
QUINCY         CLOUDY    59  57  93 E7        29.80S
GALESBURG*     HVY RAIN  58  56  94 E7        29.86S
MACOMB*        RAIN      58  57  97 E9        29.86S
JACKSONVILLE*  CLOUDY    60  57  89 SE12      29.82F
PITTSFIELD*    RAIN      60  59  96 E6        29.81S
$$

ILZ028>032-037-038-041>044-048-051>054-059>061-260100-
CENTRAL ILLINOIS

CITY           SKY/WX    TMP DP  RH WIND       PRES   REMARKS
PONTIAC        LGT RAIN  60  59  97 E8        29.93R
BLOOMINGTON    CLOUDY    58  57  97 SE7       29.91S
DECATUR        CLOUDY    61  56  83 S8        29.89R
PEORIA         LGT RAIN  59  59 100 E6        29.88S FOG
6HR MIN TEMP:  58; 6HR MAX TEMP:  63; 6HR PCP:  0.13;

SPRINGFIELD    LGT RAIN  61  58  90 E10       29.85F
6HR MIN TEMP:  60; 6HR MAX TEMP:  65; 6HR PCP:  0.11;

TAYLORVILLE    NOT AVBL
$$

ILZ033-039-045-046-055>057-062-063-260100-
EAST-CENTRAL ILLINOIS

CITY           SKY/WX    TMP DP  RH WIND       PRES   REMARKS
CHAMPAIGN      CLOUDY    62  56  80 SE7       29.91S
RANTOUL*       CLOUDY    62  59  90 SE6       29.92R
MATTOON        CLOUDY    61  58  90 SE8       29.89S
PARIS*         CLOUDY    62  58  88 SE7       29.92S
$$

ILZ079-100>102-260100-
SOUTHWEST ILLINOIS

CITY           SKY/WX    TMP DP  RH WIND       PRES   REMARKS
ALTON          CLOUDY    61  57  88 SE17      29.82R
BELLEVILLE     LGT RAIN  63  61  94 SE9       29.81S
CAHOKIA*       LGT RAIN  62  58  86 SE14      29.81R
SPARTA*        CLOUDY    62  56  82 SE13      29.83R
$$

ILZ064>066-069>071-074>076-080>082-084>086-088>090-092>094-260100-
SOUTH-CENTRAL ILLINOIS

CITY           SKY/WX    TMP DP  RH WIND       PRES   REMARKS
CARBONDALE     MOCLDY    63  58  83 S12       29.84S
6HR MIN TEMP:  61; 6HR MAX TEMP:  64; 6HR PCP:  0.05;

CAIRO*         RAIN      64  57  79 S9        29.87R
EFFINGHAM*     MOCLDY    61  58  90 E7        29.90S
MARION         CLOUDY    64  59  82 SE10      29.87R
MT. VERNON     CLOUDY    63  57  81 SE7       29.87R
CENTRALIA*     CLOUDY    62  60  93 SE7       29.85S
SALEM*         CLOUDY    63  58  84 SE5       29.86S
$$

ILZ067-068-072-073-078-083-087-091-260100-
SOUTHEAST ILLINOIS

CITY           SKY/WX    TMP DP  RH WIND       PRES   REMARKS
LAWRENCEVILLE  CLOUDY    65  53  65 S15       29.92R
FLORA*         CLOUDY    63  58  85 SE8       29.89S
FAIRFIELD*     CLOUDY    64  56  74 SE7       29.88R
HARRISBURG*    MOCLDY    64  57  79 S9        29.89R
ROBINSON*      CLOUDY    63  55  75 S7        29.92S
CARMI*         CLOUDY    62  56  80 SE10      29.90R
$$

ABBREVIATIONS USED IN REMARKS
   TC - TEMPERATURE IN CELSIUS
  WCI - WIND CHILL INDEX
   HX - HEAT INDEX
  VSB - VISIBILITY
$$





USA.gov is the U.S. government's official web portal to all federal, state and local government web resources and services.